[[{"header":{"parameterUnit":"m.s-1","parameterCategory":1,"la1":30.2991,"la2":30.254,"lo1":-89.0895,"lo2":-89.0444,"dy":0.0017,"dx":0.0017,"nx":28,"ny":28,"refTime":"2024-02-13T09:00:00:Z","depth":0,"parameterNumber":2,"parameterNumberName":"U-component_of_WINDS"},"data":[0,0,0,0,0,0,0,0,0,0,0,0,0,0,0,0,0,0,0,0,0,0,0,0,0,0,0,0,0,0,0,0,0,0,0,0,0,0,0,0,0,0,0,0,0,0,0,0,0,0,0,0,0,0,0,0,0,0,0.6712,0.6712,0,0.6733,0.6734,0.6734,0.6732,0.6731,0.6731,0.6731,0.6753,0.6754,0.6755,0,0,0,0,0,0,0,0,0,0,0,0,0,0.6669,0.667,0.6712,0.6712,0.6712,0.6733,0.6734,0.6734,0.6732,0.6731,0.6731,0.673,0.6753,0.6754,0.6755,0,0,0,0,0,0,0,0,0,0,0,0,0,0.6689,0.6671,0.6711,0.6714,0.6714,0.6733,0.6734,0.6734,0.6732,0.6731,0.6731,0.673,0.6752,0.6754,0.6755,0.6773,0,0,0.6759,0.676,0,0,0,0,0,0,0,0,0.6688,0.6691,0.6713,0.6713,0.6714,0.6729,0.6727,0.6747,0.6732,0.6725,0.6731,0.673,0.6745,0.6747,0.6753,0.6775,0.6775,0.6759,0.676,0.6761,0.6761,0,0,0,0,0,0,0,0.6687,0.669,0.672,0.6713,0.6714,0.6714,0.6716,0.6731,0.6738,0.6726,0.6725,0.6728,0.6746,0.6751,0.6753,0.6776,0.6759,0.676,0.6761,0.6762,0.6816,0.6816,0,0,0,0,0,0,0.6685,0.6689,0.6719,0.6721,0.6699,0.6715,0.6717,0.6725,0.6738,0.6739,0.6728,0.6728,0.6749,0.6751,0.6754,0.6777,0.6761,0.6762,0.6763,0.6815,0.6816,0.6817,0,0,0,0,0,0,0.6684,0.6687,0.6719,0.6705,0.6709,0.6716,0.6725,0.6726,0.6731,0.674,0.6741,0.6733,0.6749,0.6752,0.6769,0.6778,0.6762,0.6764,0.6815,0.6815,0.6816,0.6824,0,0,0,0,0,0,0.6683,0.6687,0.6694,0.6705,0.6709,0.6733,0.6725,0.6726,0.6733,0.6733,0.6744,0.6746,0.6749,0.6767,0.677,0.678,0.6765,0.6814,0.6815,0.6816,0.6823,0.6825,0.6827,0,0,0,0,0,0.6681,0.6695,0.6694,0.6698,0.6718,0.6733,0.6736,0.6739,0.6734,0.6741,0.6747,0.6745,0.6777,0.6769,0.6772,0.6782,0.6813,0.6815,0.6816,0.6822,0.6824,0.6827,0,0,0,0,0,0,0.6684,0.6696,0.6696,0.6713,0.6722,0.6733,0.6742,0.6742,0.6752,0.6751,0.6755,0.6758,0.6775,0.678,0.6771,0.6802,0.6794,0.6796,0.6797,0.68,0.6802,0.68,0.6766,0,0,0,0,0,0.6687,0.6698,0.6708,0.6723,0.6728,0.6734,0.6741,0.6743,0.6752,0.6756,0.6763,0.6773,0.6785,0.6793,0.6804,0.6824,0.6827,0.6833,0.6835,0.6836,0.6838,0.685,0.6853,0.6821,0.6821,0.6821,0,0,0.6693,0.6701,0.6707,0.6724,0.6731,0.6743,0.6737,0.675,0.6759,0.6758,0.6775,0.6781,0.6792,0.681,0.6819,0.6815,0.6847,0.6838,0.6839,0.684,0.6852,0.6855,0.6857,0.6822,0.6822,0.6822,0,0,0.6709,0.6716,0.673,0.6737,0.6749,0.6753,0.6757,0.6768,0.6772,0.6789,0.6788,0.68,0.682,0.6829,0.6835,0.6857,0.6856,0.6861,0.6871,0.6883,0.6885,0.6887,0.6896,0.6899,0.6863,0.6863,0.6863,0,0.6715,0.6733,0.6736,0.675,0.6758,0.6758,0.6772,0.6779,0.6794,0.6799,0.6795,0.6822,0.6829,0.6851,0.6856,0.6862,0.6866,0.686,0.6885,0.6887,0.6889,0.6897,0.69,0.6864,0.6863,0.6863,0.6863,0,0.674,0.6752,0.6762,0.6777,0.6785,0.6799,0.6805,0.6814,0.6816,0.6821,0.6839,0.6848,0.6862,0.6867,0.6869,0.6889,0.6887,0.6884,0.6876,0.6892,0.69,0.6903,0.6864,0.6864,0.6864,0.6864,0,0,0.6757,0.6775,0.6779,0.6786,0.6799,0.6809,0.6824,0.6838,0.6845,0.6856,0.6869,0.6887,0.6885,0.6892,0.6895,0.6905,0.6923,0.6901,0.6901,0.6905,0.6947,0.695,0.6953,0.6923,0.6923,0.6924,0.6947,0,0.6776,0.6801,0.6805,0.6827,0.684,0.6841,0.6854,0.6864,0.6869,0.6881,0.6888,0.6901,0.6896,0.6901,0.6912,0.6919,0.6932,0.6917,0.6935,0.6936,0.6932,0.6957,0.6959,0.698,0.695,0.695,0.6951,0,0.68,0.6812,0.6835,0.6848,0.6854,0.6865,0.6879,0.689,0.6902,0.6906,0.6915,0.6917,0.6933,0.6925,0.6948,0.6938,0.6945,0.695,0.6951,0.6953,0.6944,0.696,0.6987,0.699,0.6955,0.6955,0.6954,0,0.6811,0.6833,0.685,0.6856,0.6872,0.688,0.6887,0.6898,0.6907,0.6919,0.6925,0.6939,0.6947,0.6958,0.6964,0.6958,0.6987,0.6979,0.6991,0.6991,0.6996,0.6996,0.7025,0.7001,0.7001,0.7001,0.7001,0,0.6831,0.6845,0.6856,0.6866,0.6883,0.6888,0.6905,0.6912,0.6922,0.6935,0.6937,0.6949,0.6956,0.6969,0.6974,0.6992,0.6996,0.6999,0.7,0.6999,0.6999,0.7004,0.7003,0.7002,0.7002,0.7002,0.7001,0,0.6846,0.6853,0.6872,0.6886,0.689,0.6902,0.6914,0.6925,0.6931,0.6947,0.6951,0.6961,0.6977,0.6984,0.7003,0.7007,0.7028,0.7028,0.7023,0.7024,0.7035,0.7034,0.7069,0.7074,0.7047,0.7047,0.7047,0,0.6858,0.6869,0.6885,0.6893,0.6901,0.6914,0.6924,0.693,0.694,0.6955,0.6964,0.698,0.6993,0.7018,0.7028,0.7043,0.7043,0.7055,0.7046,0.7044,0.7044,0.7043,0.7045,0.7056,0.7056,0.7057,0.7057,0,0.6879,0.6883,0.6896,0.691,0.6921,0.6933,0.6945,0.6952,0.6961,0.6972,0.6988,0.6998,0.7018,0.7034,0.7051,0.7058,0.7059,0.706,0.7063,0.7062,0.7059,0.7062,0.7028,0.7059,0.7059,0.7058,0.7058,0.7058,0.6893,0.6904,0.6917,0.6932,0.6941,0.6953,0.6964,0.6972,0.6986,0.7003,0.7006,0.7024,0.7037,0.7059,0.7067,0.7082,0.7079,0.7084,0.7085,0.7086,0.7087,0.7057,0.7085,0.7085,0.7084,0.7084,0.7084,0,0.6915,0.6924,0.6937,0.6954,0.6966,0.6966,0.698,0.699,0.7005,0.7018,0.7031,0.705,0.7066,0.7078,0.7094,0.7103,0.7105,0.7108,0.7107,0.7109,0.7088,0.7084,0.7107,0.7107,0.7107,0.7107,0.7107,0.7107,0.6927,0.6946,0.6951,0.6974,0.6983,0.7,0.7008,0.7019,0.7029,0.7051,0.7064,0.7072,0.7084,0.7102,0.7117,0.712,0.7126,0.7129,0.7132,0.7113,0.711,0.7108,0.7104,0.713,0.713,0.7152,0.7152,0.7152]},{"header":{"parameterUnit":"m.s-1","parameterCategory":1,"la1":30.2991,"la2":30.254,"lo1":-89.0895,"lo2":-89.0444,"dy":0.0017,"dx":0.0017,"nx":28,"ny":28,"refTime":"2024-02-13T09:00:00:Z","depth":0,"parameterNumber":3,"parameterNumberName":"V-component_of_WINDS"},"data":[0,0,0,0,0,0,0,0,0,0,0,0,0,0,0,0,0,0,0,0,0,0,0,0,0,0,0,0,0,0,0,0,0,0,0,0,0,0,0,0,0,0,0,0,0,0,0,0,0,0,0,0,0,0,0,0,0,0,-3.6111,-3.6112,0,-3.6255,-3.6257,-3.6259,-3.6277,-3.6276,-3.6274,-3.6273,-3.6419,-3.6424,-3.6429,0,0,0,0,0,0,0,0,0,0,0,0,0,-3.585,-3.5854,-3.6111,-3.6113,-3.6114,-3.6255,-3.6257,-3.6259,-3.6277,-3.6276,-3.6274,-3.6272,-3.6417,-3.6424,-3.643,0,0,0,0,0,0,0,0,0,0,0,0,0,-3.5975,-3.5856,-3.611,-3.614,-3.6145,-3.6255,-3.6257,-3.626,-3.6278,-3.6276,-3.6273,-3.6272,-3.6415,-3.6423,-3.6431,-3.652,0,0,-3.6454,-3.6458,0,0,0,0,0,0,0,0,-3.5968,-3.5985,-3.6134,-3.6139,-3.6143,-3.6246,-3.6219,-3.6347,-3.6278,-3.6227,-3.6273,-3.6271,-3.6363,-3.6375,-3.6407,-3.6527,-3.6533,-3.6455,-3.646,-3.6463,-3.6465,0,0,0,0,0,0,0,-3.596,-3.5979,-3.6168,-3.6136,-3.6142,-3.6146,-3.6162,-3.6243,-3.6305,-3.6231,-3.6233,-3.625,-3.6365,-3.6399,-3.641,-3.6535,-3.6455,-3.6462,-3.6467,-3.647,-3.6737,-3.6739,0,0,0,0,0,0,-3.5946,-3.5972,-3.6163,-3.6172,-3.6049,-3.6153,-3.617,-3.6215,-3.6304,-3.6316,-3.6252,-3.625,-3.6387,-3.6401,-3.6415,-3.6526,-3.6463,-3.647,-3.6475,-3.6735,-3.6738,-3.674,0,0,0,0,0,0,-3.594,-3.5962,-3.6157,-3.6073,-3.6098,-3.616,-3.621,-3.6219,-3.6253,-3.6319,-3.633,-3.6275,-3.6386,-3.6404,-3.6494,-3.6531,-3.6474,-3.6481,-3.6732,-3.6735,-3.6739,-3.6748,0,0,0,0,0,0,-3.5932,-3.596,-3.5995,-3.6073,-3.6102,-3.6234,-3.6212,-3.6223,-3.6267,-3.6266,-3.6344,-3.6355,-3.6386,-3.6483,-3.6502,-3.6541,-3.6487,-3.6729,-3.6733,-3.6738,-3.6745,-3.6752,-3.6758,0,0,0,0,0,-3.5923,-3.5991,-3.5997,-3.602,-3.6147,-3.6236,-3.6253,-3.6287,-3.627,-3.6305,-3.6348,-3.6353,-3.6525,-3.6492,-3.6514,-3.6556,-3.6726,-3.6732,-3.6737,-3.6742,-3.675,-3.6757,0,0,0,0,0,0,-3.5915,-3.6002,-3.6009,-3.6105,-3.6163,-3.6239,-3.6285,-3.6295,-3.6358,-3.6355,-3.6395,-3.6412,-3.65,-3.6537,-3.6499,-3.6647,-3.6624,-3.6634,-3.662,-3.6628,-3.6634,-3.6623,-3.6493,0,0,0,0,0,-3.5925,-3.599,-3.6063,-3.614,-3.6169,-3.6222,-3.6262,-3.6284,-3.6345,-3.637,-3.6419,-3.6478,-3.6546,-3.6589,-3.6655,-3.6751,-3.6768,-3.6791,-3.6797,-3.6802,-3.681,-3.6863,-3.6874,-3.6758,-3.6758,-3.6758,0,0,-3.5945,-3.6001,-3.6039,-3.614,-3.6188,-3.6255,-3.6243,-3.6314,-3.6363,-3.638,-3.6468,-3.6507,-3.6575,-3.6669,-3.6712,-3.6702,-3.6846,-3.6809,-3.6812,-3.6818,-3.687,-3.6881,-3.689,-3.6762,-3.6761,-3.6761,0,0,-3.6016,-3.6065,-3.6135,-3.6183,-3.6256,-3.6291,-3.6307,-3.6383,-3.6409,-3.6498,-3.6512,-3.6572,-3.6687,-3.6736,-3.6776,-3.6866,-3.6873,-3.6887,-3.692,-3.6971,-3.698,-3.6989,-3.702,-3.7031,-3.6895,-3.6895,-3.6895,0,-3.6031,-3.6133,-3.6169,-3.624,-3.6284,-3.6304,-3.6375,-3.642,-3.651,-3.654,-3.6528,-3.6674,-3.6721,-3.6826,-3.6848,-3.688,-3.69,-3.6877,-3.6976,-3.6985,-3.6993,-3.7024,-3.7036,-3.6896,-3.6896,-3.6896,-3.6895,0,-3.6148,-3.6219,-3.6267,-3.6354,-3.6403,-3.6474,-3.6521,-3.6567,-3.6584,-3.662,-3.6711,-3.6769,-3.6847,-3.6874,-3.6891,-3.6982,-3.6973,-3.6968,-3.6945,-3.7005,-3.7034,-3.7046,-3.6897,-3.6897,-3.6897,-3.6896,0,0,-3.6216,-3.6324,-3.6341,-3.6381,-3.6464,-3.6519,-3.659,-3.6667,-3.6706,-3.6768,-3.6828,-3.6926,-3.6923,-3.6968,-3.6991,-3.7037,-3.7105,-3.7026,-3.7029,-3.7038,-3.7207,-3.7209,-3.7222,-3.711,-3.7113,-3.7115,-3.7201,0,-3.6296,-3.6425,-3.646,-3.6569,-3.6634,-3.6655,-3.6718,-3.6775,-3.6811,-3.6871,-3.6911,-3.698,-3.697,-3.6997,-3.7043,-3.7086,-3.7139,-3.7081,-3.7166,-3.7169,-3.7147,-3.7238,-3.7241,-3.7319,-3.7213,-3.7215,-3.7216,0,-3.6405,-3.647,-3.6586,-3.6661,-3.6689,-3.6745,-3.6819,-3.6877,-3.6942,-3.6965,-3.7016,-3.7036,-3.7111,-3.7085,-3.719,-3.715,-3.7187,-3.7214,-3.7218,-3.7226,-3.7195,-3.7248,-3.7345,-3.7357,-3.7235,-3.7233,-3.7232,0,-3.6443,-3.6559,-3.6643,-3.6677,-3.6767,-3.6805,-3.6844,-3.6908,-3.6952,-3.7017,-3.7046,-3.7118,-3.7157,-3.7213,-3.7251,-3.7229,-3.7352,-3.733,-3.7373,-3.7372,-3.7397,-3.7394,-3.7501,-3.7423,-3.7423,-3.7422,-3.7422,0,-3.6527,-3.6596,-3.6661,-3.6713,-3.6792,-3.6832,-3.6909,-3.6949,-3.7006,-3.7065,-3.7088,-3.7143,-3.7191,-3.7253,-3.7284,-3.7365,-3.7383,-3.7403,-3.741,-3.7401,-3.7398,-3.7425,-3.742,-3.7425,-3.7425,-3.7424,-3.7424,0,-3.6581,-3.6627,-3.672,-3.6798,-3.6819,-3.6874,-3.694,-3.6991,-3.7028,-3.7104,-3.7124,-3.7182,-3.7256,-3.7301,-3.7394,-3.7415,-3.7505,-3.751,-3.7483,-3.7486,-3.7526,-3.7521,-3.7652,-3.7671,-3.7581,-3.7582,-3.7583,0,-3.6631,-3.6685,-3.6769,-3.6811,-3.6851,-3.6918,-3.6963,-3.7006,-3.7053,-3.7132,-3.7173,-3.7249,-3.7312,-3.7429,-3.748,-3.7551,-3.7558,-3.7599,-3.7569,-3.7558,-3.7558,-3.7554,-3.7559,-3.7604,-3.7604,-3.7605,-3.7605,0,-3.6715,-3.6735,-3.68,-3.6874,-3.6928,-3.6988,-3.7048,-3.7081,-3.7134,-3.7185,-3.7261,-3.731,-3.7406,-3.7481,-3.7558,-3.7597,-3.761,-3.7615,-3.7629,-3.7619,-3.76,-3.761,-3.7495,-3.7611,-3.7611,-3.761,-3.761,-3.761,-3.6768,-3.6817,-3.6884,-3.6956,-3.7006,-3.7061,-3.7113,-3.7158,-3.7222,-3.7304,-3.7326,-3.7406,-3.7471,-3.7575,-3.7617,-3.768,-3.7673,-3.7693,-3.7698,-3.7702,-3.7703,-3.7591,-3.7694,-3.7694,-3.7694,-3.7694,-3.7694,0,-3.6852,-3.6896,-3.6963,-3.7046,-3.7103,-3.7111,-3.7178,-3.7225,-3.7295,-3.7355,-3.7417,-3.7505,-3.7578,-3.7635,-3.771,-3.775,-3.7757,-3.7768,-3.7764,-3.7773,-3.7705,-3.7685,-3.776,-3.776,-3.776,-3.776,-3.776,-3.776,-3.6902,-3.6986,-3.7015,-3.7123,-3.7168,-3.7247,-3.7284,-3.7336,-3.7384,-3.7481,-3.7542,-3.758,-3.7639,-3.7718,-3.7785,-3.78,-3.7826,-3.7836,-3.7851,-3.7785,-3.7778,-3.7771,-3.7753,-3.7841,-3.7841,-3.7915,-3.7915,-3.7916]}]]